Location: Paderno d�Adda
(45.6667°N, 9.4333°E)
Time: 22:24:09
(UTC+00:00)

Cosmos 1125 Rocket - Pass Details

Date: 19 January 2021
Orbit: 757 x 780 km, 74.0° (Epoch: 08 March)

Event Time Altitude Azimuth Distance (km) Brightness Sun altitude
Exits shadow 04:48:45 - 351° (N) 3,144 6.5 -21.9°
Reaches altitude 10° 04:51:37 10° 9° (N) 2,334 6.0 -21.5°
Maximum altitude 04:55:05 17° 50° (NE) 1,874 6.0 -20.9°
Drops below altitude 10° 04:58:32 10° 91° (E) 2,332 7.2 -20.3°
Sets 05:01:45 0° 111° (ESE) 3,258 8.2 -19.7°
